date,time,SUV Intensity [MED/Hr],UV Index,Daily total [MED],Since Last [MED]
19/06/2023,00:03:08,0.000,0.0,0.0,0.0
19/06/2023,00:04:09,0.000,0.0,0.0,0.0
19/06/2023,00:05:08,0.000,0.0,0.0,0.0
19/06/2023,00:06:08,0.000,0.0,0.0,0.0
19/06/2023,00:07:09,0.001,0.0,0.0,0.0
19/06/2023,00:08:09,0.000,0.0,0.0,0.0
19/06/2023,00:09:09,0.000,0.0,0.0,0.0
19/06/2023,00:10:09,0.000,0.0,0.0,0.0
19/06/2023,00:11:08,0.001,0.0,0.0,0.0
19/06/2023,00:12:09,0.000,0.0,0.0,0.0
19/06/2023,00:13:09,0.000,0.0,0.0,0.0
19/06/2023,00:14:09,0.000,0.0,0.0,0.0
19/06/2023,00:15:08,0.001,0.0,0.0,0.0
19/06/2023,00:16:08,0.000,0.0,0.0,0.0
19/06/2023,00:17:09,0.000,0.0,0.0,0.0
19/06/2023,00:18:09,0.000,0.0,0.0,0.0
19/06/2023,00:19:07,0.000,0.0,0.0,0.0
19/06/2023,00:20:09,0.000,0.0,0.0,0.0
19/06/2023,00:21:09,-0.000,0.0,0.0,0.0
19/06/2023,00:22:08,0.001,0.0,0.0,0.0
19/06/2023,00:23:09,0.000,0.0,0.0,0.0
19/06/2023,00:24:08,0.000,0.0,0.0,0.0
19/06/2023,00:25:09,0.001,0.0,0.0,0.0
19/06/2023,00:26:08,0.000,0.0,0.0,0.0
19/06/2023,00:27:08,0.000,0.0,0.0,0.0
19/06/2023,00:28:09,0.000,0.0,0.0,0.0
19/06/2023,00:29:09,-0.000,0.0,0.0,0.0
19/06/2023,00:30:08,0.000,0.0,0.0,0.0
19/06/2023,00:31:08,0.000,0.0,0.0,0.0
19/06/2023,00:32:09,0.000,0.0,0.0,0.0
19/06/2023,00:33:09,0.000,0.0,0.0,0.0
19/06/2023,00:34:09,0.001,0.0,0.0,0.0
19/06/2023,00:35:09,0.000,0.0,0.0,0.0
19/06/2023,00:36:08,0.000,0.0,0.0,0.0
19/06/2023,00:37:08,-0.000,0.0,0.0,0.0
19/06/2023,00:38:08,0.000,0.0,0.0,0.0
19/06/2023,00:39:09,0.000,0.0,0.0,0.0
19/06/2023,00:40:09,-0.000,0.0,0.0,0.0
19/06/2023,00:41:08,0.000,0.0,0.0,0.0
19/06/2023,00:42:09,0.001,0.0,0.0,0.0
19/06/2023,00:43:09,0.000,0.0,0.0,0.0
19/06/2023,00:44:09,0.000,0.0,0.0,0.0
19/06/2023,00:45:09,0.000,0.0,0.0,0.0
19/06/2023,00:46:08,0.000,0.0,0.0,0.0
19/06/2023,00:47:09,0.001,0.0,0.0,0.0
19/06/2023,00:48:09,0.000,0.0,0.0,0.0
19/06/2023,00:49:08,0.000,0.0,0.0,0.0
19/06/2023,00:50:09,0.000,0.0,0.0,0.0
19/06/2023,00:51:08,0.000,0.0,0.0,0.0
19/06/2023,00:52:09,-0.000,0.0,0.0,0.0
19/06/2023,00:53:08,0.001,0.0,0.0,0.0
19/06/2023,00:54:09,0.000,0.0,0.0,0.0
19/06/2023,00:55:09,0.000,0.0,0.0,0.0
19/06/2023,00:56:08,-0.000,0.0,0.0,0.0
19/06/2023,00:57:09,0.000,0.0,0.0,0.0
19/06/2023,00:58:09,0.000,0.0,0.0,0.0
19/06/2023,00:59:08,0.000,0.0,0.0,0.0
19/06/2023,01:00:09,0.001,0.0,0.0,0.0
19/06/2023,01:01:08,0.000,0.0,0.0,0.0
19/06/2023,01:02:09,0.001,0.0,0.0,0.0
19/06/2023,01:03:09,0.000,0.0,0.0,0.0
19/06/2023,01:04:09,0.000,0.0,0.0,0.0
19/06/2023,01:05:09,0.000,0.0,0.0,0.0
19/06/2023,01:06:08,0.001,0.0,0.0,0.0
19/06/2023,01:07:07,0.000,0.0,0.0,0.0
19/06/2023,01:08:08,0.000,0.0,0.0,0.0
19/06/2023,01:09:09,0.000,0.0,0.0,0.0
19/06/2023,01:10:08,-0.000,0.0,0.0,0.0
19/06/2023,01:11:09,0.000,0.0,0.0,0.0
19/06/2023,01:12:08,0.000,0.0,0.0,0.0
19/06/2023,01:13:09,0.000,0.0,0.0,0.0
19/06/2023,01:14:08,0.001,0.0,0.0,0.0
19/06/2023,01:15:09,0.000,0.0,0.0,0.0
19/06/2023,01:16:09,0.000,0.0,0.0,0.0
19/06/2023,01:17:08,0.000,0.0,0.0,0.0
19/06/2023,01:18:09,0.000,0.0,0.0,0.0
19/06/2023,01:19:09,0.000,0.0,0.0,0.0
19/06/2023,01:20:09,0.000,0.0,0.0,0.0
19/06/2023,01:21:08,0.000,0.0,0.0,0.0
19/06/2023,01:22:08,0.000,0.0,0.0,0.0
19/06/2023,01:23:09,0.000,0.0,0.0,0.0
19/06/2023,01:24:09,-0.000,0.0,0.0,0.0
19/06/2023,01:25:09,-0.000,0.0,0.0,0.0
19/06/2023,01:26:09,0.000,0.0,0.0,0.0
19/06/2023,01:27:09,-0.000,0.0,0.0,0.0
19/06/2023,01:28:08,0.001,0.0,0.0,0.0
19/06/2023,01:29:09,0.000,0.0,0.0,0.0
19/06/2023,01:30:09,0.000,0.0,0.0,0.0
19/06/2023,01:31:09,0.000,0.0,0.0,0.0
19/06/2023,01:32:09,0.001,0.0,0.0,0.0
19/06/2023,01:33:08,0.000,0.0,0.0,0.0
19/06/2023,01:34:08,-0.000,0.0,0.0,0.0
19/06/2023,01:35:09,0.000,0.0,0.0,0.0
19/06/2023,01:36:09,-0.000,0.0,0.0,0.0
19/06/2023,01:37:08,0.000,0.0,0.0,0.0
19/06/2023,01:38:09,0.000,0.0,0.0,0.0
19/06/2023,01:39:08,0.000,0.0,0.0,0.0
19/06/2023,01:40:09,0.000,0.0,0.0,0.0
19/06/2023,01:41:08,0.000,0.0,0.0,0.0
19/06/2023,01:42:08,0.001,0.0,0.0,0.0
19/06/2023,01:43:09,0.000,0.0,0.0,0.0
19/06/2023,01:44:13,0.000,0.0,0.0,0.0
19/06/2023,01:45:09,0.000,0.0,0.0,0.0
19/06/2023,01:46:09,0.000,0.0,0.0,0.0
19/06/2023,01:47:08,0.000,0.0,0.0,0.0
19/06/2023,01:48:09,0.001,0.0,0.0,0.0
19/06/2023,01:49:09,-0.000,0.0,0.0,0.0
19/06/2023,01:50:08,0.000,0.0,0.0,0.0
19/06/2023,01:51:09,0.000,0.0,0.0,0.0
19/06/2023,01:52:09,0.001,0.0,0.0,0.0
19/06/2023,01:53:09,-0.000,0.0,0.0,0.0
19/06/2023,01:54:09,-0.000,0.0,0.0,0.0
19/06/2023,01:55:08,0.000,0.0,0.0,0.0
19/06/2023,01:56:09,0.000,0.0,0.0,0.0
19/06/2023,01:57:09,0.000,0.0,0.0,0.0
19/06/2023,01:58:08,0.001,0.0,0.0,0.0
19/06/2023,01:59:09,-0.000,0.0,0.0,0.0
19/06/2023,02:00:09,-0.000,0.0,0.0,0.0
19/06/2023,02:01:09,-0.000,0.0,0.0,0.0
19/06/2023,02:02:09,0.001,0.0,0.0,0.0
19/06/2023,02:03:09,0.001,0.0,0.0,0.0
19/06/2023,02:04:08,-0.000,0.0,0.0,0.0
19/06/2023,02:05:08,0.000,0.0,0.0,0.0
19/06/2023,02:06:09,0.000,0.0,0.0,0.0
19/06/2023,02:07:09,0.000,0.0,0.0,0.0
19/06/2023,02:08:09,0.000,0.0,0.0,0.0
19/06/2023,02:09:08,0.000,0.0,0.0,0.0
19/06/2023,02:10:09,0.000,0.0,0.0,0.0
19/06/2023,02:11:09,0.001,0.0,0.0,0.0
19/06/2023,02:12:09,0.000,0.0,0.0,0.0
19/06/2023,02:13:08,0.000,0.0,0.0,0.0
19/06/2023,02:14:09,0.000,0.0,0.0,0.0
19/06/2023,02:15:09,-0.000,0.0,0.0,0.0
19/06/2023,02:16:09,0.000,0.0,0.0,0.0
19/06/2023,02:17:09,0.000,0.0,0.0,0.0
19/06/2023,02:18:09,0.000,0.0,0.0,0.0
19/06/2023,02:19:09,0.000,0.0,0.0,0.0
19/06/2023,02:20:08,0.000,0.0,0.0,0.0
19/06/2023,02:21:09,0.000,0.0,0.0,0.0
19/06/2023,02:22:09,0.001,0.0,0.0,0.0
19/06/2023,02:23:08,0.000,0.0,0.0,0.0
19/06/2023,02:24:08,0.000,0.0,0.0,0.0
19/06/2023,02:25:09,0.000,0.0,0.0,0.0
19/06/2023,02:26:08,0.001,0.0,0.0,0.0
19/06/2023,02:27:09,0.000,0.0,0.0,0.0
19/06/2023,02:28:08,0.000,0.0,0.0,0.0
19/06/2023,02:29:09,0.000,0.0,0.0,0.0
19/06/2023,02:30:08,0.000,0.0,0.0,0.0
19/06/2023,02:31:09,0.001,0.0,0.0,0.0
19/06/2023,02:32:09,-0.000,0.0,0.0,0.0
19/06/2023,02:33:09,0.000,0.0,0.0,0.0
19/06/2023,02:34:09,0.001,0.0,0.0,0.0
19/06/2023,02:35:09,0.000,0.0,0.0,0.0
19/06/2023,02:36:09,0.000,0.0,0.0,0.0
19/06/2023,02:37:10,0.001,0.0,0.0,0.0
19/06/2023,02:38:09,0.000,0.0,0.0,0.0
19/06/2023,02:39:08,-0.000,0.0,0.0,0.0
19/06/2023,02:40:09,-0.000,0.0,0.0,0.0
19/06/2023,02:41:09,0.000,0.0,0.0,0.0
19/06/2023,02:42:09,0.000,0.0,0.0,0.0
19/06/2023,02:43:09,-0.000,0.0,0.0,0.0
19/06/2023,02:44:09,0.000,0.0,0.0,0.0
19/06/2023,02:45:09,0.000,0.0,0.0,0.0
19/06/2023,02:46:09,0.001,0.0,0.0,0.0
19/06/2023,02:47:09,-0.000,0.0,0.0,0.0
19/06/2023,02:48:09,0.000,0.0,0.0,0.0
19/06/2023,02:49:08,0.000,0.0,0.0,0.0
19/06/2023,02:50:09,0.000,0.0,0.0,0.0
19/06/2023,02:51:09,0.000,0.0,0.0,0.0
19/06/2023,02:52:08,0.001,0.0,0.0,0.0
19/06/2023,02:53:09,0.000,0.0,0.0,0.0
19/06/2023,02:54:09,-0.000,0.0,0.0,0.0
19/06/2023,02:55:09,0.000,0.0,0.0,0.0
19/06/2023,02:56:08,0.001,0.0,0.0,0.0
19/06/2023,02:57:09,0.000,0.0,0.0,0.0
19/06/2023,02:58:08,0.000,0.0,0.0,0.0
19/06/2023,02:59:09,-0.000,0.0,0.0,0.0
19/06/2023,03:00:09,0.001,0.0,0.0,0.0
19/06/2023,03:01:08,0.001,0.0,0.0,0.0
19/06/2023,03:02:08,0.000,0.0,0.0,0.0
19/06/2023,03:03:09,0.001,0.0,0.0,0.0
19/06/2023,03:04:09,0.001,0.0,0.0,0.0
19/06/2023,03:05:09,0.001,0.0,0.0,0.0
19/06/2023,03:06:09,0.001,0.0,0.0,0.0
19/06/2023,03:07:09,-0.000,0.0,0.0,0.0
19/06/2023,03:08:09,0.001,0.0,0.0,0.0
19/06/2023,03:09:09,0.001,0.0,0.0,0.0
19/06/2023,03:10:09,0.001,0.0,0.0,0.0
19/06/2023,03:11:09,0.001,0.0,0.0,0.0
19/06/2023,03:12:09,0.001,0.0,0.0,0.0
19/06/2023,03:13:09,0.001,0.0,0.0,0.0
19/06/2023,03:14:09,0.001,0.0,0.0,0.0
19/06/2023,03:15:09,0.000,0.0,0.0,0.0
19/06/2023,03:16:09,0.001,0.0,0.0,0.0
19/06/2023,03:17:09,0.001,0.0,0.0,0.0
19/06/2023,03:18:09,0.001,0.0,0.0,0.0
19/06/2023,03:19:09,-0.000,0.0,0.0,0.0
19/06/2023,03:20:09,0.001,0.0,0.0,0.0
19/06/2023,03:21:09,0.001,0.0,0.0,0.0
19/06/2023,03:22:09,0.001,0.0,0.0,0.0
19/06/2023,03:23:09,0.001,0.0,0.0,0.0
19/06/2023,03:24:08,0.000,0.0,0.0,0.0
19/06/2023,03:25:09,0.001,0.0,0.0,0.0
19/06/2023,03:26:09,0.001,0.0,0.0,0.0
19/06/2023,03:27:09,0.000,0.0,0.0,0.0
19/06/2023,03:28:08,0.001,0.0,0.0,0.0
19/06/2023,03:29:09,0.001,0.0,0.0,0.0
19/06/2023,03:30:09,0.001,0.0,0.0,0.0
19/06/2023,03:31:09,0.001,0.0,0.0,0.0
19/06/2023,03:32:09,0.000,0.0,0.0,0.0
19/06/2023,03:33:09,0.002,0.0,0.0,0.0
19/06/2023,03:34:09,0.002,0.0,0.0,0.0
19/06/2023,03:35:09,0.001,0.0,0.0,0.0
19/06/2023,03:36:09,0.001,0.0,0.0,0.0
19/06/2023,03:37:09,0.002,0.0,0.0,0.0
19/06/2023,03:38:10,0.001,0.0,0.0,0.0
19/06/2023,03:39:09,0.002,0.0,0.0,0.0
19/06/2023,03:40:08,0.001,0.0,0.0,0.0
19/06/2023,03:41:09,0.002,0.0,0.0,0.0
19/06/2023,03:42:09,0.003,0.0,0.0,0.0
19/06/2023,03:43:08,0.002,0.0,0.0,0.0
19/06/2023,03:44:09,0.002,0.0,0.0,0.0
19/06/2023,03:45:09,0.003,0.0,0.0,0.0
19/06/2023,03:46:09,0.002,0.0,0.0,0.0
19/06/2023,03:47:09,0.003,0.0,0.0,0.0
19/06/2023,03:48:09,0.004,0.0,0.0,0.0
19/06/2023,03:49:09,0.004,0.0,0.0,0.0
19/06/2023,03:50:09,0.003,0.0,0.0,0.0
19/06/2023,03:51:09,0.003,0.0,0.0,0.0
19/06/2023,03:52:09,0.003,0.0,0.0,0.0
19/06/2023,03:53:09,0.003,0.0,0.0,0.0
19/06/2023,03:54:09,0.004,0.0,0.0,0.0
19/06/2023,03:55:09,0.003,0.0,0.0,0.0
19/06/2023,03:56:09,0.004,0.0,0.0,0.0
19/06/2023,03:57:09,0.005,0.0,0.0,0.0
19/06/2023,03:58:09,0.004,0.0,0.0,0.0
19/06/2023,03:59:09,0.004,0.0,0.0,0.0
19/06/2023,04:00:09,0.005,0.0,0.0,0.0
19/06/2023,04:01:09,0.005,0.0,0.0,0.0
19/06/2023,04:02:09,0.005,0.0,0.0,0.0
19/06/2023,04:03:09,0.004,0.0,0.0,0.0
19/06/2023,04:04:09,0.006,0.0,0.0,0.0
19/06/2023,04:05:09,0.006,0.0,0.0,0.0
19/06/2023,04:06:09,0.006,0.0,0.0,0.0
19/06/2023,04:07:09,0.006,0.0,0.0,0.0
19/06/2023,04:08:09,0.006,0.0,0.0,0.0
19/06/2023,04:09:09,0.007,0.0,0.0,0.0
19/06/2023,04:10:09,0.007,0.0,0.0,0.0
19/06/2023,04:11:08,0.007,0.0,0.001,0.001
19/06/2023,04:12:09,0.008,0.0,0.001,0.0
19/06/2023,04:13:09,0.008,0.0,0.001,0.0
19/06/2023,04:14:09,0.008,0.0,0.001,0.0
19/06/2023,04:15:09,0.009,0.0,0.001,0.0
19/06/2023,04:16:09,0.009,0.0,0.001,0.0
19/06/2023,04:17:09,0.009,0.0,0.001,0.0
19/06/2023,04:18:09,0.009,0.0,0.002,0.001
19/06/2023,04:19:09,0.010,0.0,0.002,0.0
19/06/2023,04:20:09,0.010,0.0,0.002,0.0
19/06/2023,04:21:08,0.010,0.0,0.002,0.0
19/06/2023,04:22:09,0.012,0.0,0.002,0.0
19/06/2023,04:23:09,0.012,0.0,0.002,0.0
19/06/2023,04:24:09,0.012,0.0,0.003,0.001
19/06/2023,04:25:09,0.013,0.0,0.003,0.0
19/06/2023,04:26:09,0.012,0.0,0.003,0.0
19/06/2023,04:27:09,0.012,0.0,0.003,0.0
19/06/2023,04:28:09,0.013,0.0,0.003,0.0
19/06/2023,04:29:09,0.014,0.0,0.004,0.001
19/06/2023,04:30:09,0.014,0.0,0.004,0.0
19/06/2023,04:31:09,0.015,0.0,0.004,0.0
19/06/2023,04:32:10,0.015,0.0,0.004,0.0
19/06/2023,04:33:09,0.016,0.0,0.005,0.001
19/06/2023,04:34:09,0.016,0.0,0.005,0.0
19/06/2023,04:35:09,0.017,0.0,0.005,0.0
19/06/2023,04:36:09,0.018,0.0,0.005,0.0
19/06/2023,04:37:09,0.018,0.0,0.006,0.001
19/06/2023,04:38:09,0.019,0.0,0.006,0.0
19/06/2023,04:39:09,0.019,0.0,0.006,0.0
19/06/2023,04:40:09,0.019,0.0,0.007,0.001
19/06/2023,04:41:09,0.020,0.0,0.007,0.0
19/06/2023,04:42:09,0.021,0.0,0.007,0.0
19/06/2023,04:43:09,0.020,0.0,0.008,0.001
19/06/2023,04:44:09,0.022,0.0,0.008,0.0
19/06/2023,04:45:09,0.023,0.0,0.008,0.0
19/06/2023,04:46:09,0.023,0.0,0.009,0.001
19/06/2023,04:47:09,0.025,0.0,0.009,0.0
19/06/2023,04:48:09,0.025,0.0,0.01,0.001
19/06/2023,04:49:09,0.026,0.0,0.01,0.0
19/06/2023,04:50:09,0.026,0.0,0.01,0.0
19/06/2023,04:51:09,0.027,0.0,0.011,0.001
19/06/2023,04:52:09,0.027,0.0,0.011,0.0
19/06/2023,04:53:10,0.029,0.0,0.012,0.001
19/06/2023,04:54:09,0.029,0.0,0.012,0.0
19/06/2023,04:55:09,0.030,0.0,0.013,0.001
19/06/2023,04:56:09,0.031,0.0,0.013,0.0
19/06/2023,04:57:09,0.032,0.0,0.014,0.001
19/06/2023,04:58:09,0.032,0.0,0.014,0.0
19/06/2023,04:59:09,0.033,0.0,0.015,0.001
19/06/2023,05:00:10,0.034,0.0,0.015,0.0
19/06/2023,05:01:09,0.035,0.0,0.016,0.001
19/06/2023,05:02:09,0.036,0.0,0.017,0.001
19/06/2023,05:03:09,0.037,0.0,0.017,0.0
19/06/2023,05:04:09,0.038,0.0,0.018,0.001
19/06/2023,05:05:09,0.039,0.0,0.018,0.0
19/06/2023,05:06:09,0.040,0.0,0.019,0.001
19/06/2023,05:07:09,0.041,0.0,0.02,0.001
19/06/2023,05:08:09,0.042,0.0,0.02,0.0
19/06/2023,05:09:09,0.042,0.0,0.021,0.001
19/06/2023,05:10:09,0.044,0.0,0.022,0.001
19/06/2023,05:11:09,0.045,0.0,0.023,0.001
19/06/2023,05:12:09,0.046,0.0,0.023,0.0
19/06/2023,05:13:10,0.047,0.0,0.024,0.001
19/06/2023,05:14:09,0.048,0.0,0.025,0.001
19/06/2023,05:15:09,0.049,0.0,0.026,0.001
19/06/2023,05:16:09,0.050,0.0,0.027,0.001
19/06/2023,05:17:10,0.052,0.0,0.027,0.0
19/06/2023,05:18:09,0.053,0.0,0.028,0.001
19/06/2023,05:19:09,0.055,0.0,0.029,0.001
19/06/2023,05:20:09,0.056,0.0,0.03,0.001
19/06/2023,05:21:09,0.058,0.0,0.031,0.001
19/06/2023,05:22:10,0.058,0.0,0.032,0.001
19/06/2023,05:23:09,0.060,0.0,0.033,0.001
19/06/2023,05:24:09,0.061,0.0,0.034,0.001
19/06/2023,05:25:10,0.063,0.0,0.035,0.001
19/06/2023,05:26:09,0.064,0.0,0.036,0.001
19/06/2023,05:27:09,0.066,0.0,0.037,0.001
19/06/2023,05:28:09,0.067,0.0,0.038,0.001
19/06/2023,05:29:09,0.068,0.0,0.039,0.001
19/06/2023,05:30:09,0.069,0.0,0.041,0.002
19/06/2023,05:31:10,0.068,0.0,0.042,0.001
19/06/2023,05:32:09,0.069,0.0,0.043,0.001
19/06/2023,05:33:09,0.072,0.0,0.044,0.001
19/06/2023,05:34:09,0.074,0.0,0.045,0.001
19/06/2023,05:35:09,0.078,0.0,0.047,0.002
19/06/2023,05:36:09,0.079,0.0,0.048,0.001
19/06/2023,05:37:09,0.079,0.0,0.049,0.001
19/06/2023,05:38:09,0.079,0.0,0.05,0.001
19/06/2023,05:39:09,0.076,0.0,0.052,0.002
19/06/2023,05:40:10,0.078,0.0,0.053,0.001
19/06/2023,05:41:09,0.080,0.0,0.054,0.001
19/06/2023,05:42:09,0.084,0.0,0.056,0.002
19/06/2023,05:43:09,0.082,0.0,0.057,0.001
19/06/2023,05:44:09,0.080,0.0,0.058,0.001
19/06/2023,05:45:09,0.081,0.0,0.06,0.002
19/06/2023,05:46:09,0.074,0.0,0.061,0.001
19/06/2023,05:47:09,0.068,0.0,0.062,0.001
19/06/2023,05:48:10,0.069,0.0,0.063,0.001
19/06/2023,05:49:09,0.070,0.0,0.064,0.001
19/06/2023,05:50:09,0.071,0.0,0.066,0.002
19/06/2023,05:51:10,0.072,0.0,0.067,0.001
19/06/2023,05:52:09,0.072,0.0,0.068,0.001
19/06/2023,05:53:09,0.069,0.0,0.069,0.001
19/06/2023,05:54:09,0.071,0.0,0.07,0.001
19/06/2023,05:55:10,0.070,0.0,0.072,0.002
19/06/2023,05:56:09,0.073,0.0,0.073,0.001
19/06/2023,05:57:09,0.076,0.0,0.074,0.001
19/06/2023,05:58:10,0.076,0.0,0.075,0.001
19/06/2023,05:59:09,0.074,0.0,0.077,0.002
19/06/2023,06:00:10,0.075,0.0,0.078,0.001
19/06/2023,06:01:09,0.081,0.0,0.079,0.001
19/06/2023,06:02:09,0.071,0.0,0.08,0.001
19/06/2023,06:03:09,0.075,0.0,0.082,0.002
19/06/2023,06:04:09,0.085,0.0,0.083,0.001
19/06/2023,06:05:09,0.086,0.0,0.084,0.001
19/06/2023,06:06:09,0.081,0.0,0.086,0.002
19/06/2023,06:07:09,0.081,0.0,0.087,0.001
19/06/2023,06:08:09,0.084,0.0,0.089,0.002
19/06/2023,06:09:09,0.090,0.0,0.09,0.001
19/06/2023,06:10:09,0.078,0.0,0.091,0.001
19/06/2023,06:11:10,0.073,0.0,0.093,0.002
19/06/2023,06:12:09,0.070,0.0,0.094,0.001
19/06/2023,06:13:10,0.072,0.0,0.095,0.001
19/06/2023,06:14:09,0.073,0.0,0.096,0.001
19/06/2023,06:15:09,0.061,0.0,0.097,0.001
19/06/2023,06:16:09,0.059,0.0,0.098,0.001
19/06/2023,06:17:10,0.064,0.0,0.099,0.001
19/06/2023,06:18:09,0.059,0.0,0.1,0.001
19/06/2023,06:19:10,0.061,0.0,0.101,0.001
19/06/2023,06:20:10,0.059,0.0,0.102,0.001
19/06/2023,06:21:10,0.061,0.0,0.103,0.001
19/06/2023,06:22:10,0.068,0.0,0.104,0.001
19/06/2023,06:23:09,0.070,0.0,0.106,0.002
19/06/2023,06:24:09,0.071,0.0,0.107,0.001
19/06/2023,06:25:09,0.066,0.0,0.108,0.001
19/06/2023,06:26:09,0.067,0.0,0.109,0.001
19/06/2023,06:27:10,0.074,0.0,0.11,0.001
19/06/2023,06:28:09,0.075,0.0,0.111,0.001
19/06/2023,06:29:10,0.076,0.0,0.113,0.002
19/06/2023,06:30:09,0.082,0.0,0.114,0.001
19/06/2023,06:31:09,0.091,0.0,0.115,0.001
19/06/2023,06:32:09,0.093,0.0,0.117,0.002
19/06/2023,06:33:09,0.088,0.0,0.119,0.002
19/06/2023,06:34:09,0.085,0.0,0.12,0.001
19/06/2023,06:35:09,0.086,0.0,0.121,0.001
19/06/2023,06:36:09,0.088,0.0,0.123,0.002
19/06/2023,06:37:09,0.096,0.0,0.124,0.001
19/06/2023,06:38:09,0.101,0.0,0.126,0.002
19/06/2023,06:39:09,0.113,0.0,0.128,0.002
19/06/2023,06:40:09,0.123,0.0,0.13,0.002
19/06/2023,06:41:10,0.133,0.0,0.132,0.002
19/06/2023,06:42:09,0.142,0.0,0.134,0.002
19/06/2023,06:43:09,0.152,0.0,0.137,0.003
19/06/2023,06:44:09,0.163,0.0,0.139,0.002
19/06/2023,06:45:09,0.175,0.0,0.142,0.003
19/06/2023,06:46:09,0.185,0.0,0.145,0.003
19/06/2023,06:47:10,0.194,0.0,0.148,0.003
19/06/2023,06:48:09,0.192,0.0,0.151,0.003
19/06/2023,06:49:09,0.185,0.0,0.155,0.004
19/06/2023,06:50:09,0.192,0.0,0.158,0.003
19/06/2023,06:51:10,0.197,0.0,0.161,0.003
19/06/2023,06:52:09,0.210,0.0,0.164,0.003
19/06/2023,06:53:10,0.224,1.0,0.168,0.004
19/06/2023,06:54:09,0.219,1.0,0.172,0.004
19/06/2023,06:55:09,0.208,0.0,0.175,0.003
19/06/2023,06:56:09,0.185,0.0,0.179,0.004
19/06/2023,06:57:09,0.171,0.0,0.182,0.003
19/06/2023,06:58:10,0.172,0.0,0.184,0.002
19/06/2023,06:59:09,0.166,0.0,0.187,0.003
19/06/2023,07:00:10,0.179,0.0,0.19,0.003
19/06/2023,07:01:10,0.202,0.0,0.193,0.003
19/06/2023,07:02:09,0.209,0.0,0.197,0.004
19/06/2023,07:03:09,0.220,1.0,0.2,0.003
19/06/2023,07:04:09,0.219,1.0,0.204,0.004
19/06/2023,07:05:09,0.227,1.0,0.208,0.004
19/06/2023,07:06:10,0.235,1.0,0.212,0.004
19/06/2023,07:07:09,0.240,1.0,0.215,0.003
19/06/2023,07:08:09,0.260,1.0,0.22,0.005
19/06/2023,07:09:09,0.260,1.0,0.224,0.004
19/06/2023,07:10:09,0.252,1.0,0.228,0.004
19/06/2023,07:11:09,0.247,1.0,0.232,0.004
19/06/2023,07:12:10,0.265,1.0,0.237,0.005
19/06/2023,07:13:09,0.268,1.0,0.241,0.004
19/06/2023,07:14:09,0.271,1.0,0.245,0.004
19/06/2023,07:15:09,0.277,1.0,0.25,0.005
19/06/2023,07:16:09,0.274,1.0,0.255,0.005
19/06/2023,07:17:09,0.278,1.0,0.259,0.004
19/06/2023,07:18:10,0.296,1.0,0.264,0.005
19/06/2023,07:19:09,0.331,1.0,0.269,0.005
19/06/2023,07:20:10,0.362,1.0,0.275,0.006
19/06/2023,07:21:09,0.359,1.0,0.281,0.006
19/06/2023,07:22:09,0.385,1.0,0.287,0.006
19/06/2023,07:23:10,0.402,1.0,0.294,0.007
19/06/2023,07:24:09,0.419,1.0,0.301,0.007
19/06/2023,07:25:09,0.499,1.0,0.309,0.008
19/06/2023,07:26:09,0.529,1.0,0.318,0.009
19/06/2023,07:27:10,0.534,1.0,0.326,0.008
19/06/2023,07:28:10,0.541,1.0,0.335,0.009
19/06/2023,07:29:09,0.524,1.0,0.344,0.009
19/06/2023,07:30:10,0.443,1.0,0.352,0.008
19/06/2023,07:31:09,0.398,1.0,0.359,0.007
19/06/2023,07:32:09,0.420,1.0,0.365,0.006
19/06/2023,07:33:09,0.408,1.0,0.372,0.007
19/06/2023,07:34:10,0.368,1.0,0.379,0.007
19/06/2023,07:35:09,0.353,1.0,0.385,0.006
19/06/2023,07:36:09,0.364,1.0,0.391,0.006
19/06/2023,07:37:09,0.327,1.0,0.396,0.005
19/06/2023,07:38:09,0.338,1.0,0.402,0.006
19/06/2023,07:39:09,0.388,1.0,0.408,0.006
19/06/2023,07:40:10,0.400,1.0,0.415,0.007
19/06/2023,07:41:09,0.449,1.0,0.422,0.007
19/06/2023,07:42:11,0.473,1.0,0.43,0.008
19/06/2023,07:43:10,0.503,1.0,0.438,0.008
19/06/2023,07:44:09,0.531,1.0,0.447,0.009
19/06/2023,07:45:09,0.513,1.0,0.455,0.008
19/06/2023,07:46:09,0.538,1.0,0.465,0.01
19/06/2023,07:47:10,0.646,1.0,0.475,0.01
19/06/2023,07:48:09,0.521,1.0,0.485,0.01
19/06/2023,07:49:10,0.517,1.0,0.494,0.009
19/06/2023,07:50:09,0.579,1.0,0.503,0.009
19/06/2023,07:51:10,0.676,2.0,0.514,0.011
19/06/2023,07:52:09,0.654,2.0,0.524,0.01
19/06/2023,07:53:09,0.677,2.0,0.534,0.01
19/06/2023,07:54:09,0.568,1.0,0.544,0.01
19/06/2023,07:55:10,0.525,1.0,0.553,0.009
19/06/2023,07:56:09,0.544,1.0,0.562,0.009
19/06/2023,07:57:10,0.678,2.0,0.572,0.01
19/06/2023,07:58:09,0.724,2.0,0.582,0.01
19/06/2023,07:59:10,0.730,2.0,0.594,0.012
19/06/2023,08:00:09,0.749,2.0,0.606,0.012
19/06/2023,08:01:09,0.631,1.0,0.618,0.012
19/06/2023,08:02:09,0.710,2.0,0.629,0.011
19/06/2023,08:03:09,0.592,1.0,0.64,0.011
19/06/2023,08:04:09,0.751,2.0,0.653,0.013
19/06/2023,08:05:10,0.656,2.0,0.665,0.012
19/06/2023,08:06:09,0.784,2.0,0.677,0.012
19/06/2023,08:07:10,0.782,2.0,0.691,0.014
19/06/2023,08:08:09,0.807,2.0,0.703,0.012
19/06/2023,08:09:11,0.825,2.0,0.716,0.013
19/06/2023,08:10:10,0.791,2.0,0.73,0.014
19/06/2023,08:11:10,0.753,2.0,0.743,0.013
19/06/2023,08:12:09,0.787,2.0,0.756,0.013
19/06/2023,08:13:10,0.731,2.0,0.766,0.01
19/06/2023,08:14:09,0.581,1.0,0.776,0.01
19/06/2023,08:15:10,0.565,1.0,0.786,0.01
19/06/2023,08:16:09,0.654,2.0,0.797,0.011
19/06/2023,08:17:10,0.583,1.0,0.807,0.01
19/06/2023,08:18:09,0.535,1.0,0.816,0.009
19/06/2023,08:19:09,0.536,1.0,0.825,0.009
19/06/2023,08:20:09,0.603,1.0,0.834,0.009
19/06/2023,08:21:09,0.896,2.0,0.848,0.014
19/06/2023,08:22:10,0.735,2.0,0.86,0.012
19/06/2023,08:23:09,0.942,2.0,0.876,0.016
19/06/2023,08:24:09,0.757,2.0,0.89,0.014
19/06/2023,08:25:09,0.684,2.0,0.902,0.012
19/06/2023,08:26:10,0.669,2.0,0.914,0.012
19/06/2023,08:27:09,0.898,2.0,0.926,0.012
19/06/2023,08:28:09,0.934,2.0,0.941,0.015
19/06/2023,08:29:10,0.718,2.0,0.955,0.014
19/06/2023,08:30:09,0.767,2.0,0.968,0.013
19/06/2023,08:31:10,0.578,1.0,0.98,0.012
19/06/2023,08:32:09,0.549,1.0,0.989,0.009
19/06/2023,08:33:10,0.518,1.0,0.998,0.009
19/06/2023,08:34:10,0.464,1.0,1.006,0.008
19/06/2023,08:35:09,0.415,1.0,1.013,0.007
19/06/2023,08:36:10,0.356,1.0,1.02,0.007
19/06/2023,08:37:10,0.304,1.0,1.025,0.005
19/06/2023,08:38:10,0.272,1.0,1.03,0.005
19/06/2023,08:39:09,0.283,1.0,1.034,0.004
19/06/2023,08:40:10,0.321,1.0,1.039,0.005
19/06/2023,08:41:09,0.389,1.0,1.045,0.006
19/06/2023,08:42:10,0.472,1.0,1.053,0.008
19/06/2023,08:43:09,0.545,1.0,1.061,0.008
19/06/2023,08:44:10,0.627,1.0,1.071,0.01
19/06/2023,08:45:09,0.560,1.0,1.08,0.009
19/06/2023,08:46:09,0.491,1.0,1.089,0.009
19/06/2023,08:47:10,0.404,1.0,1.097,0.008
19/06/2023,08:48:09,0.343,1.0,1.103,0.006
19/06/2023,08:49:09,0.325,1.0,1.108,0.005
19/06/2023,08:50:09,0.362,1.0,1.114,0.006
19/06/2023,08:51:10,0.416,1.0,1.121,0.007
19/06/2023,08:52:09,0.479,1.0,1.128,0.007
19/06/2023,08:53:10,0.555,1.0,1.137,0.009
19/06/2023,08:54:09,0.645,1.0,1.147,0.01
19/06/2023,08:55:10,0.745,2.0,1.158,0.011
19/06/2023,08:56:10,1.160,3.0,1.174,0.016
19/06/2023,08:57:09,1.194,3.0,1.193,0.019
19/06/2023,08:58:09,1.242,3.0,1.212,0.019
19/06/2023,08:59:09,1.228,3.0,1.234,0.022
19/06/2023,09:00:10,1.133,3.0,1.253,0.019
19/06/2023,09:01:10,1.253,3.0,1.273,0.02
19/06/2023,09:02:09,1.226,3.0,1.294,0.021
19/06/2023,09:03:09,1.091,3.0,1.314,0.02
19/06/2023,09:04:10,0.713,2.0,1.326,0.012
19/06/2023,09:05:09,0.651,1.0,1.338,0.012
19/06/2023,09:06:10,0.602,1.0,1.348,0.01
19/06/2023,09:07:10,0.574,1.0,1.358,0.01
19/06/2023,09:33:10,1.531,4.0,0.258,-1.1
19/06/2023,09:50:28,1.625,4.0,0.615,0.357
19/06/2023,09:51:56,1.219,3.0,0.652,0.037
19/06/2023,09:53:59,1.708,4.0,0.705,0.053
19/06/2023,09:54:58,1.736,4.0,0.733,0.028
19/06/2023,09:55:58,1.715,4.0,0.762,0.029
19/06/2023,09:56:58,1.030,2.0,0.781,0.019
19/06/2023,09:57:59,1.183,3.0,0.804,0.023
19/06/2023,09:58:58,1.610,4.0,0.829,0.025
19/06/2023,09:59:58,1.775,4.0,0.859,0.03
19/06/2023,10:00:59,1.765,4.0,0.888,0.029
19/06/2023,10:02:02,1.778,4.0,0.919,0.031
19/06/2023,10:02:59,1.074,2.0,0.936,0.017
19/06/2023,10:03:59,1.747,4.0,0.961,0.025
19/06/2023,10:04:58,1.773,4.0,0.99,0.029
19/06/2023,10:05:58,1.784,4.0,1.02,0.03
19/06/2023,10:06:59,1.795,4.0,1.05,0.03
19/06/2023,10:07:58,1.809,4.0,1.08,0.03
19/06/2023,10:08:59,1.834,4.0,1.11,0.03
19/06/2023,10:09:58,1.844,4.0,1.141,0.031
19/06/2023,10:10:59,1.858,4.0,1.172,0.031
19/06/2023,10:11:58,1.873,4.0,1.203,0.031
19/06/2023,10:12:59,1.885,4.0,1.234,0.031
19/06/2023,10:13:58,1.883,4.0,1.265,0.031
19/06/2023,10:14:59,1.870,4.0,1.297,0.032
19/06/2023,10:15:58,1.886,4.0,1.328,0.031
19/06/2023,10:16:58,1.890,4.0,1.36,0.032
19/06/2023,10:17:59,1.190,3.0,1.389,0.029
19/06/2023,10:18:58,1.896,4.0,1.418,0.029
19/06/2023,10:19:58,1.914,4.0,1.45,0.032
19/06/2023,10:20:58,1.658,4.0,1.482,0.032
19/06/2023,10:21:59,1.925,4.0,1.513,0.031
19/06/2023,10:22:58,1.914,4.0,1.542,0.029
19/06/2023,10:23:59,1.446,3.0,1.573,0.031
19/06/2023,10:24:58,1.115,3.0,1.591,0.018
19/06/2023,10:25:59,1.328,3.0,1.615,0.024
19/06/2023,10:26:58,1.058,2.0,1.635,0.02
19/06/2023,10:27:58,0.978,2.0,1.651,0.016
19/06/2023,10:28:59,0.932,2.0,1.667,0.016
19/06/2023,10:29:58,0.973,2.0,1.683,0.016
19/06/2023,10:30:58,0.891,2.0,1.699,0.016
19/06/2023,10:31:59,0.843,2.0,1.713,0.014
19/06/2023,10:32:59,0.814,2.0,1.727,0.014
19/06/2023,10:33:58,0.799,2.0,1.741,0.014
19/06/2023,10:34:59,0.802,2.0,1.754,0.013
19/06/2023,10:35:58,0.819,2.0,1.767,0.013
19/06/2023,10:36:59,0.911,2.0,1.782,0.015
19/06/2023,10:37:58,1.579,4.0,1.799,0.017
19/06/2023,10:38:58,1.056,2.0,1.819,0.02
19/06/2023,10:39:58,1.958,5.0,1.839,0.02